Minneapolis Flying Cloud, MN

12:41 AM CDT on October 21, 2019 (GMT -0500)
Flying Cloud

Weather History for KFCM - August, 2019

Change the Weather History Date:

Saturday, August 24, 2019

  Actual Average Record
Temperature  
Mean Temperature 67 °F -  
Max Temperature 75 °F 78 °F 98 °F (2003)
Min Temperature 61 °F 59 °F 54 °F (2008)
Cooling Degree Days 2    
Growing Degree Days 17 (Base 50)    
Moisture  
Dew Point 55 °F    
Average Humidity 65    
Maximum Humidity 83    
Minimum Humidity 48    
Precipitation  
Precipitation 0.00 in - - ()
Sea Level Pressure  
Sea Level Pressure 30.18 in    
Wind  
Wind Speed 9 mph (SE)    
Max Wind Speed 16 mph    
Max Gust Speed 24 mph    
Visibility 10 miles    
Events      
Averages and records for this station are not official NWS values.
T = Trace of Precipitation, MM = Missing Value Source: NWS Daily Summary

Daily Weather History Graph

Daily Weather History Graph

Search for Another Location

Airport or City:

Astronomy

Aug. 24, 2019 Rise Set
Actual Time 6:26 AM CDT 8:05 PM CDT
Civil Twilight 5:55 AM CDT 8:36 PM CDT
Nautical Twilight 5:17 AM CDT 9:13 PM CDT
Astronomical Twilight 4:37 AM CDT 9:53 PM CDT
Moon 12:14 AM CDT (8/24) 3:28 PM CDT (8/24)
Length of Visible Light 14h 40m
Length of Day
13h 38m
Last Quarter, 39% of the Moon is Illuminated
Aug 24
Last Quarter
Aug 30
New
Sep 5
First Quarter
Sep 13
Full
Sep 21
Last Quarter

Hourly Weather History & Observations

Time (CDT) Temp. Dew Point Humidity Pressure Visibility Wind Dir Wind Speed Gust Speed Precip Events Conditions
12:53 AM 64.0 °F 57.0 °F 78% 30.20 in 10.0 mi SE 8.1 mph - N/A   Scattered Clouds
1:53 AM 63.0 °F 55.9 °F 78% 30.21 in 10.0 mi SE 5.8 mph - N/A   Clear
2:53 AM 63.0 °F 55.9 °F 78% 30.21 in 10.0 mi SSE 5.8 mph - N/A   Mostly Cloudy
3:53 AM 62.1 °F 55.9 °F 80% 30.21 in 10.0 mi SSE 8.1 mph - N/A   Mostly Cloudy
4:53 AM 61.0 °F 55.9 °F 83% 30.22 in 10.0 mi SSE 8.1 mph - N/A   Scattered Clouds
5:53 AM 62.1 °F 55.0 °F 78% 30.22 in 10.0 mi SSE 9.2 mph - N/A   Overcast
6:53 AM 63.0 °F 55.0 °F 75% 30.23 in 10.0 mi SE 9.2 mph - N/A   Overcast
7:53 AM 63.0 °F 55.0 °F 75% 30.25 in 10.0 mi SSE 9.2 mph - N/A   Overcast
8:53 AM 64.0 °F 55.0 °F 73% 30.24 in 10.0 mi SSE 8.1 mph - N/A   Overcast
9:53 AM 66.9 °F 55.0 °F 66% 30.23 in 10.0 mi SSE 10.4 mph - N/A   Scattered Clouds
10:53 AM 70.0 °F 55.9 °F 61% 30.23 in 10.0 mi ESE 9.2 mph - N/A   Partly Cloudy
11:53 AM 72.0 °F 55.9 °F 57% 30.21 in 10.0 mi SE 13.8 mph - N/A   Clear
12:53 PM 73.9 °F 55.0 °F 52% 30.19 in 10.0 mi SE 13.8 mph - N/A   Scattered Clouds
1:53 PM 73.0 °F 53.1 °F 49% 30.18 in 10.0 mi SE 15.0 mph - N/A   Overcast
2:53 PM 73.0 °F 52.0 °F 48% 30.17 in 10.0 mi SE 16.1 mph 24.2 mph N/A   Mostly Cloudy
3:53 PM 73.9 °F 53.1 °F 48% 30.14 in 10.0 mi SSE 12.7 mph - N/A   Partly Cloudy
4:53 PM 73.9 °F 54.0 °F 50% 30.14 in 10.0 mi SE 16.1 mph 21.9 mph N/A   Mostly Cloudy
5:53 PM 73.9 °F 53.1 °F 48% 30.13 in 10.0 mi ESE 16.1 mph - N/A   Scattered Clouds
6:53 PM 71.1 °F 53.1 °F 53% 30.13 in 10.0 mi SSE 11.5 mph - N/A   Partly Cloudy
7:53 PM 68.0 °F 53.1 °F 59% 30.12 in 10.0 mi SE 9.2 mph - N/A   Partly Cloudy
8:53 PM 66.9 °F 54.0 °F 63% 30.12 in 10.0 mi ESE 5.8 mph - N/A   Mostly Cloudy
9:53 PM 66.9 °F 54.0 °F 63% 30.11 in 10.0 mi ESE 8.1 mph - N/A   Partly Cloudy
10:53 PM 64.9 °F 55.0 °F 70% 30.10 in 10.0 mi SE 8.1 mph - N/A   Overcast